Time,TemperatureF,DewpointF,PressureIn,WindDirection,WindDirectionDegrees,WindSpeedMPH,WindSpeedGustMPH,Humidity,HourlyPrecipIn,Conditions,Clouds,dailyrainin,SoftwareType,DateUTC
2013-09-17 00:01:00,67.4,61.0,30.15,West,281,0.0,0.0,80,0.00,,,0.00,LWC V2.00 B2112,2013-09-17 04:01:00,
2013-09-17 00:06:00,67.3,60.9,30.15,West,281,0.0,0.0,80,0.00,,,0.00,LWC V2.00 B2112,2013-09-17 04:06:00,
2013-09-17 00:11:00,67.1,61.1,30.15,West,281,0.0,0.0,81,0.00,,,0.00,LWC V2.00 B2112,2013-09-17 04:11:00,
2013-09-17 00:16:00,66.9,60.9,30.15,West,281,0.0,0.0,81,0.00,,,0.00,LWC V2.00 B2112,2013-09-17 04:16:00,
2013-09-17 00:21:00,66.8,61.1,30.15,West,281,0.0,0.0,82,0.00,,,0.00,LWC V2.00 B2112,2013-09-17 04:21:00,
2013-09-17 00:26:00,66.6,60.9,30.15,West,281,0.0,0.0,82,0.00,,,0.00,LWC V2.00 B2112,2013-09-17 04:26:00,
2013-09-17 00:31:00,66.4,61.1,30.15,West,281,0.0,0.0,83,0.00,,,0.00,LWC V2.00 B2112,2013-09-17 04:31:00,
2013-09-17 00:36:00,66.3,61.0,30.15,West,281,0.0,0.0,83,0.00,,,0.00,LWC V2.00 B2112,2013-09-17 04:36:00,
2013-09-17 00:41:00,66.1,61.1,30.15,West,281,0.0,0.0,84,0.00,,,0.00,LWC V2.00 B2112,2013-09-17 04:41:00,
2013-09-17 00:46:00,65.8,60.8,30.15,West,281,0.0,1.0,84,0.00,,,0.00,LWC V2.00 B2112,2013-09-17 04:46:00,
2013-09-17 00:51:00,65.6,60.6,30.15,West,281,0.0,0.0,84,0.00,,,0.00,LWC V2.00 B2112,2013-09-17 04:51:00,
2013-09-17 00:56:00,65.5,60.5,30.15,West,281,0.0,0.0,84,0.00,,,0.00,LWC V2.00 B2112,2013-09-17 04:56:00,
2013-09-17 01:02:00,65.3,61.0,30.15,West,281,0.0,0.0,86,0.00,,,0.00,LWC V2.00 B2112,2013-09-17 05:02:00,
2013-09-17 01:07:00,65.3,61.0,30.15,West,281,0.0,0.0,86,0.00,,,0.00,LWC V2.00 B2112,2013-09-17 05:07:00,
2013-09-17 01:12:00,65.2,61.2,30.15,West,281,0.0,0.0,87,0.00,,,0.00,LWC V2.00 B2112,2013-09-17 05:12:00,
2013-09-17 01:17:00,65.0,60.7,30.15,West,281,0.0,0.0,86,0.00,,,0.00,LWC V2.00 B2112,2013-09-17 05:17:00,
2013-09-17 01:22:00,64.8,60.5,30.15,West,281,0.0,0.0,86,0.00,,,0.00,LWC V2.00 B2112,2013-09-17 05:22:00,
2013-09-17 01:27:00,64.7,60.4,30.15,West,281,0.0,0.0,86,0.00,,,0.00,LWC V2.00 B2112,2013-09-17 05:27:00,
2013-09-17 01:32:00,64.5,60.2,30.15,West,281,0.0,0.0,86,0.00,,,0.00,LWC V2.00 B2112,2013-09-17 05:32:00,
2013-09-17 01:37:00,64.3,60.3,30.16,West,281,0.0,0.0,87,0.00,,,0.00,LWC V2.00 B2112,2013-09-17 05:37:00,
2013-09-17 01:42:00,64.2,60.2,30.16,West,281,0.0,0.0,87,0.00,,,0.00,LWC V2.00 B2112,2013-09-17 05:42:00,
2013-09-17 01:47:00,64.0,60.0,30.16,West,281,0.0,0.0,87,0.00,,,0.00,LWC V2.00 B2112,2013-09-17 05:47:00,
2013-09-17 01:52:00,63.9,59.9,30.16,West,281,0.0,0.0,87,0.00,,,0.00,LWC V2.00 B2112,2013-09-17 05:52:00,
2013-09-17 01:57:00,63.7,60.1,30.16,West,281,0.0,0.0,88,0.00,,,0.00,LWC V2.00 B2112,2013-09-17 05:57:00,
2013-09-17 02:02:00,63.5,59.9,30.16,West,281,0.0,0.0,88,0.00,,,0.00,LWC V2.00 B2112,2013-09-17 06:02:00,
2013-09-17 02:07:00,63.4,59.8,30.16,West,281,0.0,0.0,88,0.00,,,0.00,LWC V2.00 B2112,2013-09-17 06:07:00,
2013-09-17 02:12:00,63.2,59.6,30.16,West,281,0.0,0.0,88,0.00,,,0.00,LWC V2.00 B2112,2013-09-17 06:12:00,
2013-09-17 02:17:00,63.1,59.5,30.16,West,281,0.0,0.0,88,0.00,,,0.00,LWC V2.00 B2112,2013-09-17 06:17:00,
2013-09-17 02:22:00,62.9,59.3,30.16,West,281,0.0,0.0,88,0.00,,,0.00,LWC V2.00 B2112,2013-09-17 06:22:00,
2013-09-17 02:27:00,62.7,59.1,30.16,West,281,0.0,0.0,88,0.00,,,0.00,LWC V2.00 B2112,2013-09-17 06:27:00,
2013-09-17 02:32:00,62.6,59.0,30.16,West,281,0.0,0.0,88,0.00,,,0.00,LWC V2.00 B2112,2013-09-17 06:32:00,
2013-09-17 02:37:00,62.6,59.0,30.15,West,281,0.0,0.0,88,0.00,,,0.00,LWC V2.00 B2112,2013-09-17 06:37:00,
2013-09-17 02:42:00,62.4,58.8,30.15,West,281,0.0,0.0,88,0.00,,,0.00,LWC V2.00 B2112,2013-09-17 06:42:00,
2013-09-17 02:47:00,62.3,58.7,30.15,West,281,0.0,0.0,88,0.00,,,0.00,LWC V2.00 B2112,2013-09-17 06:47:00,
2013-09-17 02:52:00,62.1,58.5,30.15,West,281,0.0,0.0,88,0.00,,,0.00,LWC V2.00 B2112,2013-09-17 06:52:00,
2013-09-17 02:57:00,62.0,58.4,30.15,West,281,0.0,0.0,88,0.00,,,0.00,LWC V2.00 B2112,2013-09-17 06:57:00,
2013-09-17 03:02:00,61.8,58.2,30.15,West,281,0.0,0.0,88,0.00,,,0.00,LWC V2.00 B2112,2013-09-17 07:02:00,
2013-09-17 03:07:00,61.6,58.0,30.16,West,281,0.0,0.0,88,0.00,,,0.00,LWC V2.00 B2112,2013-09-17 07:07:00,
2013-09-17 03:12:00,61.6,58.0,30.16,West,281,0.0,0.0,88,0.00,,,0.00,LWC V2.00 B2112,2013-09-17 07:12:00,
2013-09-17 03:17:00,61.5,58.2,30.16,West,281,0.0,0.0,89,0.00,,,0.00,LWC V2.00 B2112,2013-09-17 07:17:00,
2013-09-17 03:22:00,61.3,58.0,30.16,West,281,0.0,0.0,89,0.00,,,0.00,LWC V2.00 B2112,2013-09-17 07:22:00,
2013-09-17 03:27:00,61.3,58.0,30.16,West,281,0.0,0.0,89,0.00,,,0.00,LWC V2.00 B2112,2013-09-17 07:27:00,
2013-09-17 03:32:00,61.3,58.0,30.16,West,281,0.0,0.0,89,0.00,,,0.00,LWC V2.00 B2112,2013-09-17 07:32:00,
2013-09-17 03:37:00,61.2,58.2,30.16,West,281,0.0,0.0,90,0.00,,,0.00,LWC V2.00 B2112,2013-09-17 07:37:00,
2013-09-17 03:42:00,61.2,58.2,30.16,West,281,0.0,0.0,90,0.00,,,0.00,LWC V2.00 B2112,2013-09-17 07:42:00,
2013-09-17 03:47:00,61.2,58.2,30.16,West,281,0.0,0.0,90,0.00,,,0.00,LWC V2.00 B2112,2013-09-17 07:47:00,
2013-09-17 03:52:00,61.0,58.0,30.16,West,281,0.0,0.0,90,0.00,,,0.00,LWC V2.00 B2112,2013-09-17 07:52:00,
2013-09-17 03:57:00,61.0,58.3,30.16,West,281,0.0,0.0,91,0.00,,,0.00,LWC V2.00 B2112,2013-09-17 07:57:00,
2013-09-17 04:02:00,60.9,57.9,30.16,West,281,0.0,0.0,90,0.00,,,0.00,LWC V2.00 B2112,2013-09-17 08:02:00,
2013-09-17 04:07:00,60.9,57.9,30.16,West,281,0.0,0.0,90,0.00,,,0.00,LWC V2.00 B2112,2013-09-17 08:07:00,
2013-09-17 04:12:00,60.7,57.7,30.16,West,281,0.0,0.0,90,0.00,,,0.00,LWC V2.00 B2112,2013-09-17 08:12:00,
2013-09-17 04:17:00,60.4,57.1,30.16,West,281,0.0,0.0,89,0.00,,,0.00,LWC V2.00 B2112,2013-09-17 08:17:00,
2013-09-17 04:22:00,60.4,57.1,30.16,West,281,0.0,0.0,89,0.00,,,0.00,LWC V2.00 B2112,2013-09-17 08:22:00,
2013-09-17 04:27:00,60.2,56.9,30.16,West,281,0.0,0.0,89,0.00,,,0.00,LWC V2.00 B2112,2013-09-17 08:27:00,
2013-09-17 04:32:00,60.1,56.8,30.16,West,281,0.0,0.0,89,0.00,,,0.00,LWC V2.00 B2112,2013-09-17 08:32:00,
2013-09-17 04:37:00,59.9,56.6,30.17,West,281,0.0,0.0,89,0.00,,,0.00,LWC V2.00 B2112,2013-09-17 08:37:00,
2013-09-17 04:42:00,59.8,56.9,30.17,West,281,0.0,0.0,90,0.00,,,0.00,LWC V2.00 B2112,2013-09-17 08:42:00,
2013-09-17 04:47:00,59.6,56.7,30.17,West,281,0.0,0.0,90,0.00,,,0.00,LWC V2.00 B2112,2013-09-17 08:47:00,
2013-09-17 04:52:00,59.5,56.6,30.17,West,281,0.0,0.0,90,0.00,,,0.00,LWC V2.00 B2112,2013-09-17 08:52:00,
2013-09-17 04:57:00,59.3,56.4,30.17,West,281,0.0,0.0,90,0.00,,,0.00,LWC V2.00 B2112,2013-09-17 08:57:00,
2013-09-17 05:02:00,59.3,56.4,30.17,West,281,0.0,0.0,90,0.00,,,0.00,LWC V2.00 B2112,2013-09-17 09:02:00,
2013-09-17 05:07:00,59.2,56.3,30.18,West,281,0.0,0.0,90,0.00,,,0.00,LWC V2.00 B2112,2013-09-17 09:07:00,
2013-09-17 05:12:00,59.2,56.3,30.18,West,281,0.0,0.0,90,0.00,,,0.00,LWC V2.00 B2112,2013-09-17 09:12:00,
2013-09-17 05:17:00,59.2,56.6,30.18,West,281,0.0,0.0,91,0.00,,,0.00,LWC V2.00 B2112,2013-09-17 09:17:00,
2013-09-17 05:22:00,59.2,56.6,30.18,West,281,0.0,0.0,91,0.00,,,0.00,LWC V2.00 B2112,2013-09-17 09:22:00,
2013-09-17 05:27:00,59.2,56.6,30.18,West,281,0.0,0.0,91,0.00,,,0.00,LWC V2.00 B2112,2013-09-17 09:27:00,
2013-09-17 05:32:00,59.0,56.4,30.18,West,281,0.0,0.0,91,0.00,,,0.00,LWC V2.00 B2112,2013-09-17 09:32:00,
2013-09-17 05:37:00,59.0,56.4,30.18,West,281,0.0,0.0,91,0.00,,,0.00,LWC V2.00 B2112,2013-09-17 09:37:00,
2013-09-17 05:42:00,59.0,56.4,30.18,West,281,0.0,0.0,91,0.00,,,0.00,LWC V2.00 B2112,2013-09-17 09:42:00,
2013-09-17 05:47:00,59.0,56.4,30.18,West,281,0.0,0.0,91,0.00,,,0.00,LWC V2.00 B2112,2013-09-17 09:47:00,
2013-09-17 05:52:00,59.0,56.4,30.18,West,281,0.0,0.0,91,0.00,,,0.00,LWC V2.00 B2112,2013-09-17 09:52:00,
2013-09-17 05:57:00,59.0,56.4,30.18,West,281,0.0,0.0,91,0.00,,,0.00,LWC V2.00 B2112,2013-09-17 09:57:00,
2013-09-17 06:02:00,58.9,56.3,30.18,West,281,0.0,0.0,91,0.00,,,0.00,LWC V2.00 B2112,2013-09-17 10:02:00,
2013-09-17 06:07:00,58.9,56.3,30.19,West,281,0.0,0.0,91,0.00,,,0.00,LWC V2.00 B2112,2013-09-17 10:07:00,
2013-09-17 06:12:00,58.7,56.1,30.19,West,281,0.0,0.0,91,0.00,,,0.00,LWC V2.00 B2112,2013-09-17 10:12:00,
2013-09-17 06:17:00,58.6,56.0,30.19,West,281,0.0,0.0,91,0.00,,,0.00,LWC V2.00 B2112,2013-09-17 10:17:00,
2013-09-17 06:22:00,58.6,56.3,30.19,West,281,0.0,0.0,92,0.00,,,0.00,LWC V2.00 B2112,2013-09-17 10:22:00,
2013-09-17 06:27:00,58.4,56.1,30.19,West,281,0.0,0.0,92,0.00,,,0.00,LWC V2.00 B2112,2013-09-17 10:27:00,
2013-09-17 06:32:00,58.3,56.0,30.19,West,281,0.0,0.0,92,0.00,,,0.00,LWC V2.00 B2112,2013-09-17 10:32:00,
2013-09-17 06:37:00,58.3,56.0,30.20,West,281,0.0,0.0,92,0.00,,,0.00,LWC V2.00 B2112,2013-09-17 10:37:00,
2013-09-17 06:40:00,58.3,56.0,30.20,West,281,0.0,0.0,92,0.00,,,0.00,LWC V2.00 B2112,2013-09-17 10:40:00,
2013-09-17 06:42:00,58.1,55.8,30.20,West,281,0.0,0.0,92,0.00,,,0.00,LWC V2.00 B2112,2013-09-17 10:42:00,
2013-09-17 07:20:00,57.5,55.2,30.22,West,281,0.0,0.0,92,0.00,,,0.00,LWC V2.00 B2112,2013-09-17 11:20:00,
2013-09-17 07:25:00,57.3,55.0,30.22,West,281,0.0,0.0,92,0.00,,,0.00,LWC V2.00 B2112,2013-09-17 11:25:00,
2013-09-17 07:30:00,57.3,55.0,30.22,West,281,0.0,0.0,92,0.00,,,0.00,LWC V2.00 B2112,2013-09-17 11:30:00,
2013-09-17 07:35:00,57.3,55.0,30.23,West,281,0.0,0.0,92,0.00,,,0.00,LWC V2.00 B2112,2013-09-17 11:35:00,
2013-09-17 07:40:00,57.3,55.3,30.23,West,281,0.0,0.0,93,0.00,,,0.00,LWC V2.00 B2112,2013-09-17 11:40:00,
2013-09-17 07:45:00,57.3,55.3,30.23,West,281,0.0,0.0,93,0.00,,,0.00,LWC V2.00 B2112,2013-09-17 11:45:00,
2013-09-17 07:50:00,57.5,55.5,30.23,West,281,0.0,0.0,93,0.00,,,0.00,LWC V2.00 B2112,2013-09-17 11:50:00,
2013-09-17 07:55:00,57.5,55.8,30.23,West,281,0.0,0.0,94,0.00,,,0.00,LWC V2.00 B2112,2013-09-17 11:55:00,
2013-09-17 08:00:00,57.6,55.9,30.23,West,281,0.0,0.0,94,0.00,,,0.00,LWC V2.00 B2112,2013-09-17 12:00:00,
2013-09-17 08:05:00,57.8,56.1,30.23,West,281,0.0,0.0,94,0.00,,,0.00,LWC V2.00 B2112,2013-09-17 12:05:00,
2013-09-17 08:10:00,58.1,56.4,30.23,West,281,0.0,0.0,94,0.00,,,0.00,LWC V2.00 B2112,2013-09-17 12:10:00,
2013-09-17 08:15:00,58.3,56.6,30.23,West,281,0.0,0.0,94,0.00,,,0.00,LWC V2.00 B2112,2013-09-17 12:15:00,
2013-09-17 08:20:00,58.4,56.7,30.24,West,281,0.0,0.0,94,0.00,,,0.00,LWC V2.00 B2112,2013-09-17 12:20:00,
2013-09-17 08:25:00,58.6,56.6,30.24,West,281,0.0,0.0,93,0.00,,,0.00,LWC V2.00 B2112,2013-09-17 12:25:00,
2013-09-17 08:30:00,58.7,56.4,30.24,WNW,292,0.0,1.0,92,0.00,,,0.00,LWC V2.00 B2112,2013-09-17 12:30:00,
2013-09-17 08:35:00,59.0,56.4,30.24,WNW,288,0.0,0.0,91,0.00,,,0.00,LWC V2.00 B2112,2013-09-17 12:35:00,
2013-09-17 08:40:00,59.3,56.7,30.24,WNW,287,1.0,1.0,91,0.00,,,0.00,LWC V2.00 B2112,2013-09-17 12:40:00,
2013-09-17 08:45:00,59.6,56.4,30.24,WNW,287,0.0,0.0,89,0.00,,,0.00,LWC V2.00 B2112,2013-09-17 12:45:00,
2013-09-17 08:50:00,60.1,56.5,30.25,WSW,257,0.0,0.0,88,0.00,,,0.00,LWC V2.00 B2112,2013-09-17 12:50:00,
2013-09-17 08:55:00,60.4,56.8,30.25,WSW,257,0.0,1.0,88,0.00,,,0.00,LWC V2.00 B2112,2013-09-17 12:55:00,
2013-09-17 09:00:00,60.7,56.8,30.25,WNW,291,0.0,0.0,87,0.00,,,0.00,LWC V2.00 B2112,2013-09-17 13:00:00,
2013-09-17 09:05:00,61.2,56.7,30.26,SW,231,0.0,1.0,85,0.00,,,0.00,LWC V2.00 B2112,2013-09-17 13:05:00,
2013-09-17 09:10:00,61.5,56.6,30.26,West,268,2.0,2.0,84,0.00,,,0.00,LWC V2.00 B2112,2013-09-17 13:10:00,
2013-09-17 09:15:00,62.0,56.8,30.26,WNW,292,0.0,2.0,83,0.00,,,0.00,LWC V2.00 B2112,2013-09-17 13:15:00,
2013-09-17 09:20:00,62.3,57.1,30.26,WNW,288,1.0,1.0,83,0.00,,,0.00,LWC V2.00 B2112,2013-09-17 13:20:00,
2013-09-17 09:25:00,62.6,56.7,30.26,West,273,0.0,2.0,81,0.00,,,0.00,LWC V2.00 B2112,2013-09-17 13:25:00,
2013-09-17 09:30:00,62.9,57.7,30.26,West,273,0.0,0.0,83,0.00,,,0.00,LWC V2.00 B2112,2013-09-17 13:30:00,
2013-09-17 09:35:00,63.1,57.8,30.26,West,273,0.0,1.0,83,0.00,,,0.00,LWC V2.00 B2112,2013-09-17 13:35:00,
2013-09-17 09:40:00,63.4,57.1,30.26,West,275,0.0,0.0,80,0.00,,,0.00,LWC V2.00 B2112,2013-09-17 13:40:00,
2013-09-17 09:45:00,63.7,57.4,30.26,West,275,0.0,1.0,80,0.00,,,0.00,LWC V2.00 B2112,2013-09-17 13:45:00,
2013-09-17 09:50:00,64.0,57.3,30.26,West,274,0.0,1.0,79,0.00,,,0.00,LWC V2.00 B2112,2013-09-17 13:50:00,
2013-09-17 09:55:00,64.2,56.8,30.26,WNW,300,0.0,3.0,77,0.00,,,0.00,LWC V2.00 B2112,2013-09-17 13:55:00,
2013-09-17 10:00:00,64.7,57.3,30.26,West,276,0.0,4.0,77,0.00,,,0.00,LWC V2.00 B2112,2013-09-17 14:00:00,
2013-09-17 10:05:00,64.8,56.7,30.27,West,275,0.0,1.0,75,0.00,,,0.00,LWC V2.00 B2112,2013-09-17 14:05:00,
2013-09-17 10:10:00,65.0,57.2,30.27,West,275,0.0,0.0,76,0.00,,,0.00,LWC V2.00 B2112,2013-09-17 14:10:00,
2013-09-17 10:15:00,65.3,57.2,30.27,West,269,0.0,0.0,75,0.00,,,0.00,LWC V2.00 B2112,2013-09-17 14:15:00,
2013-09-17 10:20:00,65.6,57.1,30.27,West,277,0.0,1.0,74,0.00,,,0.00,LWC V2.00 B2112,2013-09-17 14:20:00,
2013-09-17 10:25:00,65.8,56.1,30.27,NW,309,0.0,1.0,71,0.00,,,0.00,LWC V2.00 B2112,2013-09-17 14:25:00,
2013-09-17 10:30:00,66.3,56.6,30.27,NW,307,0.0,0.0,71,0.00,,,0.00,LWC V2.00 B2112,2013-09-17 14:30:00,
2013-09-17 10:35:00,66.6,57.3,30.27,WNW,298,0.0,0.0,72,0.00,,,0.00,LWC V2.00 B2112,2013-09-17 14:35:00,
2013-09-17 10:40:00,66.9,57.6,30.27,West,270,0.0,0.0,72,0.00,,,0.00,LWC V2.00 B2112,2013-09-17 14:40:00,
2013-09-17 10:45:00,67.1,58.9,30.27,West,270,0.0,0.0,75,0.00,,,0.00,LWC V2.00 B2112,2013-09-17 14:45:00,
2013-09-17 10:50:00,67.1,56.6,30.27,West,267,0.0,0.0,69,0.00,,,0.00,LWC V2.00 B2112,2013-09-17 14:50:00,
2013-09-17 10:55:00,67.3,56.8,30.27,West,279,0.0,0.0,69,0.00,,,0.00,LWC V2.00 B2112,2013-09-17 14:55:00,
2013-09-17 11:00:00,67.8,57.2,30.27,West,275,0.0,0.0,69,0.00,,,0.00,LWC V2.00 B2112,2013-09-17 15:00:00,
2013-09-17 11:05:00,67.8,56.8,30.27,West,269,0.0,1.0,68,0.00,,,0.00,LWC V2.00 B2112,2013-09-17 15:05:00,
2013-09-17 11:10:00,68.1,57.1,30.27,West,259,3.0,3.0,68,0.00,,,0.00,LWC V2.00 B2112,2013-09-17 15:10:00,
2013-09-17 11:15:00,68.4,56.2,30.27,West,259,0.0,1.0,65,0.00,,,0.00,LWC V2.00 B2112,2013-09-17 15:15:00,
2013-09-17 11:20:00,69.1,56.4,30.27,West,279,0.0,3.0,64,0.00,,,0.00,LWC V2.00 B2112,2013-09-17 15:20:00,
2013-09-17 11:25:00,69.8,56.2,30.27,West,263,0.0,5.0,62,0.00,,,0.00,LWC V2.00 B2112,2013-09-17 15:25:00,
2013-09-17 11:30:00,70.1,57.3,30.27,West,263,0.0,0.0,64,0.00,,,0.00,LWC V2.00 B2112,2013-09-17 15:30:00,
2013-09-17 11:35:00,70.3,56.7,30.27,West,269,0.0,1.0,62,0.00,,,0.00,LWC V2.00 B2112,2013-09-17 15:35:00,
2013-09-17 11:40:00,70.8,56.2,30.27,SW,222,0.0,2.0,60,0.00,,,0.00,LWC V2.00 B2112,2013-09-17 15:40:00,
2013-09-17 11:45:00,71.3,56.7,30.27,West,277,0.0,3.0,60,0.00,,,0.00,LWC V2.00 B2112,2013-09-17 15:45:00,
2013-09-17 11:50:00,71.5,56.4,30.27,West,277,0.0,2.0,59,0.00,,,0.00,LWC V2.00 B2112,2013-09-17 15:50:00,
2013-09-17 11:55:00,71.3,54.8,30.27,WNW,285,0.0,1.0,56,0.00,,,0.00,LWC V2.00 B2112,2013-09-17 15:55:00,
2013-09-17 12:00:00,71.6,57.9,30.27,WNW,285,0.0,0.0,62,0.00,,,0.00,LWC V2.00 B2112,2013-09-17 16:00:00,
2013-09-17 12:05:00,71.8,56.7,30.27,WNW,283,0.0,0.0,59,0.00,,,0.00,LWC V2.00 B2112,2013-09-17 16:05:00,
2013-09-17 12:10:00,72.5,57.3,30.27,WNW,300,6.0,7.0,59,0.00,,,0.00,LWC V2.00 B2112,2013-09-17 16:10:00,
2013-09-17 12:15:00,72.7,55.1,30.27,WNW,290,1.0,2.0,54,0.00,,,0.00,LWC V2.00 B2112,2013-09-17 16:15:00,
2013-09-17 12:20:00,72.7,55.1,30.26,West,259,0.0,2.0,54,0.00,,,0.00,LWC V2.00 B2112,2013-09-17 16:20:00,
2013-09-17 12:25:00,73.0,53.8,30.26,West,263,0.0,4.0,51,0.00,,,0.00,LWC V2.00 B2112,2013-09-17 16:25:00,
2013-09-17 12:30:00,72.5,53.9,30.26,WNW,295,0.0,0.0,52,0.00,,,0.00,LWC V2.00 B2112,2013-09-17 16:30:00,
2013-09-17 12:35:00,72.5,53.9,30.26,WNW,294,0.0,1.0,52,0.00,,,0.00,LWC V2.00 B2112,2013-09-17 16:35:00,
2013-09-17 12:40:00,72.1,55.0,30.26,WNW,294,0.0,0.0,55,0.00,,,0.00,LWC V2.00 B2112,2013-09-17 16:40:00,
2013-09-17 12:45:00,72.3,53.1,30.26,SW,232,0.0,2.0,51,0.00,,,0.00,LWC V2.00 B2112,2013-09-17 16:45:00,
2013-09-17 12:50:00,72.5,52.2,30.26,West,270,0.0,3.0,49,0.00,,,0.00,LWC V2.00 B2112,2013-09-17 16:50:00,
2013-09-17 12:55:00,72.1,53.5,30.26,WSW,258,0.0,0.0,52,0.00,,,0.00,LWC V2.00 B2112,2013-09-17 16:55:00,
2013-09-17 13:00:00,72.3,54.2,30.26,WNW,285,0.0,0.0,53,0.00,,,0.00,LWC V2.00 B2112,2013-09-17 17:00:00,
2013-09-17 13:05:00,72.5,53.3,30.25,WSW,247,0.0,1.0,51,0.00,,,0.00,LWC V2.00 B2112,2013-09-17 17:05:00,
2013-09-17 13:10:00,72.3,57.2,30.25,WSW,247,0.0,2.0,59,0.00,,,0.00,LWC V2.00 B2112,2013-09-17 17:10:00,
2013-09-17 13:15:00,72.3,52.6,30.25,West,273,0.0,2.0,50,0.00,,,0.00,LWC V2.00 B2112,2013-09-17 17:15:00,
2013-09-17 13:20:00,72.1,54.5,30.25,West,273,0.0,0.0,54,0.00,,,0.00,LWC V2.00 B2112,2013-09-17 17:20:00,
2013-09-17 13:25:00,72.1,55.0,30.25,West,273,0.0,0.0,55,0.00,,,0.00,LWC V2.00 B2112,2013-09-17 17:25:00,
2013-09-17 13:30:00,72.1,53.0,30.25,WSW,253,0.0,2.0,51,0.00,,,0.00,LWC V2.00 B2112,2013-09-17 17:30:00,
2013-09-17 13:35:00,72.5,51.7,30.25,WSW,246,0.0,3.0,48,0.00,,,0.00,LWC V2.00 B2112,2013-09-17 17:35:00,
2013-09-17 13:40:00,72.7,56.1,30.25,SE,143,0.0,0.0,56,0.00,,,0.00,LWC V2.00 B2112,2013-09-17 17:40:00,
2013-09-17 13:45:00,72.5,53.3,30.25,West,271,0.0,0.0,51,0.00,,,0.00,LWC V2.00 B2112,2013-09-17 17:45:00,
2013-09-17 13:50:00,72.3,51.5,30.24,WSW,238,1.0,2.0,48,0.00,,,0.00,LWC V2.00 B2112,2013-09-17 17:50:00,
2013-09-17 13:55:00,72.1,55.0,30.24,WSW,238,0.0,1.0,55,0.00,,,0.00,LWC V2.00 B2112,2013-09-17 17:55:00,
2013-09-17 14:00:00,72.1,55.5,30.24,WSW,238,0.0,0.0,56,0.00,,,0.00,LWC V2.00 B2112,2013-09-17 18:00:00,
2013-09-17 14:05:00,72.0,52.3,30.24,WSW,250,0.0,2.0,50,0.00,,,0.00,LWC V2.00 B2112,2013-09-17 18:05:00,
2013-09-17 14:10:00,72.0,54.9,30.24,WSW,250,0.0,1.0,55,0.00,,,0.00,LWC V2.00 B2112,2013-09-17 18:10:00,
2013-09-17 14:15:00,72.1,54.5,30.24,WSW,257,0.0,3.0,54,0.00,,,0.00,LWC V2.00 B2112,2013-09-17 18:15:00,
2013-09-17 14:20:00,72.3,51.5,30.23,West,276,0.0,3.0,48,0.00,,,0.00,LWC V2.00 B2112,2013-09-17 18:20:00,
2013-09-17 14:25:00,72.5,51.7,30.23,West,281,0.0,1.0,48,0.00,,,0.00,LWC V2.00 B2112,2013-09-17 18:25:00,
2013-09-17 14:30:00,72.5,54.4,30.23,West,281,0.0,0.0,53,0.00,,,0.00,LWC V2.00 B2112,2013-09-17 18:30:00,
2013-09-17 14:35:00,72.7,55.1,30.23,West,281,0.0,0.0,54,0.00,,,0.00,LWC V2.00 B2112,2013-09-17 18:35:00,
2013-09-17 14:40:00,72.7,53.0,30.23,West,281,0.0,0.0,50,0.00,,,0.00,LWC V2.00 B2112,2013-09-17 18:40:00,
2013-09-17 14:45:00,72.7,51.9,30.23,West,279,0.0,1.0,48,0.00,,,0.00,LWC V2.00 B2112,2013-09-17 18:45:00,
2013-09-17 14:50:00,72.8,55.2,30.23,West,279,0.0,1.0,54,0.00,,,0.00,LWC V2.00 B2112,2013-09-17 18:50:00,
2013-09-17 14:55:00,72.7,53.0,30.23,West,279,0.0,1.0,50,0.00,,,0.00,LWC V2.00 B2112,2013-09-17 18:55:00,
2013-09-17 15:00:00,72.5,55.4,30.23,West,279,0.0,0.0,55,0.00,,,0.00,LWC V2.00 B2112,2013-09-17 19:00:00,
2013-09-17 15:05:00,72.3,50.3,30.22,West,279,0.0,1.0,46,0.00,,,0.00,LWC V2.00 B2112,2013-09-17 19:05:00,
2013-09-17 15:10:00,72.5,51.1,30.22,West,279,0.0,1.0,47,0.00,,,0.00,LWC V2.00 B2112,2013-09-17 19:10:00,
2013-09-17 15:15:00,72.8,52.0,30.22,West,268,0.0,3.0,48,0.00,,,0.00,LWC V2.00 B2112,2013-09-17 19:15:00,
2013-09-17 15:20:00,72.8,50.8,30.21,West,268,0.0,0.0,46,0.00,,,0.00,LWC V2.00 B2112,2013-09-17 19:20:00,
2013-09-17 15:25:00,73.0,53.8,30.21,West,264,0.0,1.0,51,0.00,,,0.00,LWC V2.00 B2112,2013-09-17 19:25:00,
2013-09-17 15:30:00,72.8,54.7,30.21,West,264,0.0,0.0,53,0.00,,,0.00,LWC V2.00 B2112,2013-09-17 19:30:00,
2013-09-17 15:35:00,72.8,55.7,30.21,West,265,0.0,2.0,55,0.00,,,0.00,LWC V2.00 B2112,2013-09-17 19:35:00,
2013-09-17 15:40:00,72.8,53.6,30.21,WSW,245,0.0,0.0,51,0.00,,,0.00,LWC V2.00 B2112,2013-09-17 19:40:00,
2013-09-17 15:45:00,72.8,53.1,30.21,WSW,245,0.0,0.0,50,0.00,,,0.00,LWC V2.00 B2112,2013-09-17 19:45:00,
2013-09-17 15:50:00,73.0,53.8,30.21,WSW,245,0.0,0.0,51,0.00,,,0.00,LWC V2.00 B2112,2013-09-17 19:50:00,
2013-09-17 15:55:00,73.0,52.7,30.21,WSW,246,0.0,1.0,49,0.00,,,0.00,LWC V2.00 B2112,2013-09-17 19:55:00,
2013-09-17 16:00:00,73.0,56.4,30.21,WSW,246,0.0,0.0,56,0.00,,,0.00,LWC V2.00 B2112,2013-09-17 20:00:00,
2013-09-17 16:05:00,72.7,55.6,30.20,WSW,246,0.0,0.0,55,0.00,,,0.00,LWC V2.00 B2112,2013-09-17 20:05:00,
2013-09-17 16:10:00,72.5,55.9,30.20,WSW,246,0.0,0.0,56,0.00,,,0.00,LWC V2.00 B2112,2013-09-17 20:10:00,
2013-09-17 16:15:00,72.3,52.6,30.20,WSW,246,0.0,0.0,50,0.00,,,0.00,LWC V2.00 B2112,2013-09-17 20:15:00,
2013-09-17 16:20:00,72.5,51.1,30.19,WSW,254,1.0,2.0,47,0.00,,,0.00,LWC V2.00 B2112,2013-09-17 20:20:00,
2013-09-17 16:25:00,72.7,52.4,30.19,WSW,254,0.0,0.0,49,0.00,,,0.00,LWC V2.00 B2112,2013-09-17 20:25:00,
2013-09-17 16:30:00,72.5,55.4,30.19,WSW,254,0.0,0.0,55,0.00,,,0.00,LWC V2.00 B2112,2013-09-17 20:30:00,
2013-09-17 16:35:00,72.3,55.7,30.20,WSW,254,0.0,0.0,56,0.00,,,0.00,LWC V2.00 B2112,2013-09-17 20:35:00,
2013-09-17 16:40:00,71.8,56.2,30.20,WSW,254,0.0,0.0,58,0.00,,,0.00,LWC V2.00 B2112,2013-09-17 20:40:00,
2013-09-17 16:45:00,71.3,55.7,30.20,WSW,254,0.0,0.0,58,0.00,,,0.00,LWC V2.00 B2112,2013-09-17 20:45:00,
2013-09-17 16:50:00,70.9,55.8,30.19,WSW,254,0.0,1.0,59,0.00,,,0.00,LWC V2.00 B2112,2013-09-17 20:50:00,
2013-09-17 16:55:00,70.9,56.3,30.19,WSW,254,0.0,0.0,60,0.00,,,0.00,LWC V2.00 B2112,2013-09-17 20:55:00,
2013-09-17 17:00:00,70.9,51.9,30.19,WSW,254,0.0,0.0,51,0.00,,,0.00,LWC V2.00 B2112,2013-09-17 21:00:00,
2013-09-17 17:05:00,71.1,56.5,30.20,WSW,254,0.0,0.0,60,0.00,,,0.00,LWC V2.00 B2112,2013-09-17 21:05:00,
2013-09-17 17:10:00,70.8,55.3,30.20,WSW,254,0.0,0.0,58,0.00,,,0.00,LWC V2.00 B2112,2013-09-17 21:10:00,
2013-09-17 17:15:00,70.4,55.4,30.20,WSW,254,0.0,0.0,59,0.00,,,0.00,LWC V2.00 B2112,2013-09-17 21:15:00,
2013-09-17 17:20:00,69.9,56.3,30.19,WSW,254,0.0,0.0,62,0.00,,,0.00,LWC V2.00 B2112,2013-09-17 21:20:00,
2013-09-17 17:25:00,69.6,56.9,30.19,WSW,254,0.0,0.0,64,0.00,,,0.00,LWC V2.00 B2112,2013-09-17 21:25:00,
2013-09-17 17:30:00,69.3,57.9,30.19,WSW,257,0.0,1.0,67,0.00,,,0.00,LWC V2.00 B2112,2013-09-17 21:30:00,
2013-09-17 17:35:00,69.3,54.3,30.19,WSW,257,0.0,0.0,59,0.00,,,0.00,LWC V2.00 B2112,2013-09-17 21:35:00,
2013-09-17 17:40:00,69.6,56.0,30.19,WSW,257,0.0,0.0,62,0.00,,,0.00,LWC V2.00 B2112,2013-09-17 21:40:00,
2013-09-17 17:45:00,69.6,54.6,30.19,WSW,257,0.0,0.0,59,0.00,,,0.00,LWC V2.00 B2112,2013-09-17 21:45:00,
2013-09-17 17:51:00,69.8,56.6,30.19,WSW,257,0.0,0.0,63,0.00,,,0.00,LWC V2.00 B2112,2013-09-17 21:51:00,
2013-09-17 17:56:00,69.6,56.0,30.19,WSW,257,0.0,0.0,62,0.00,,,0.00,LWC V2.00 B2112,2013-09-17 21:56:00,
2013-09-17 18:01:00,69.4,57.5,30.19,WSW,257,0.0,0.0,66,0.00,,,0.00,LWC V2.00 B2112,2013-09-17 22:01:00,
2013-09-17 18:06:00,69.3,56.6,30.19,WSW,257,0.0,0.0,64,0.00,,,0.00,LWC V2.00 B2112,2013-09-17 22:06:00,
2013-09-17 18:11:00,68.9,56.2,30.19,WSW,257,0.0,0.0,64,0.00,,,0.00,LWC V2.00 B2112,2013-09-17 22:11:00,
2013-09-17 18:16:00,68.6,55.9,30.19,WSW,257,0.0,0.0,64,0.00,,,0.00,LWC V2.00 B2112,2013-09-17 22:16:00,
2013-09-17 18:21:00,68.4,55.7,30.19,WSW,257,0.0,1.0,64,0.00,,,0.00,LWC V2.00 B2112,2013-09-17 22:21:00,
2013-09-17 18:26:00,68.3,56.1,30.19,WSW,257,0.0,0.0,65,0.00,,,0.00,LWC V2.00 B2112,2013-09-17 22:26:00,
2013-09-17 18:31:00,68.3,58.1,30.19,WSW,257,0.0,0.0,70,0.00,,,0.00,LWC V2.00 B2112,2013-09-17 22:31:00,
2013-09-17 18:36:00,68.1,57.1,30.20,WSW,257,0.0,0.0,68,0.00,,,0.00,LWC V2.00 B2112,2013-09-17 22:36:00,
2013-09-17 18:41:00,67.9,56.9,30.20,WSW,257,0.0,0.0,68,0.00,,,0.00,LWC V2.00 B2112,2013-09-17 22:41:00,
2013-09-17 18:46:00,67.6,56.7,30.20,WSW,257,0.0,0.0,68,0.00,,,0.00,LWC V2.00 B2112,2013-09-17 22:46:00,
2013-09-17 18:51:00,67.1,56.2,30.20,WSW,257,0.0,0.0,68,0.00,,,0.00,LWC V2.00 B2112,2013-09-17 22:51:00,
2013-09-17 18:56:00,66.8,56.3,30.20,WSW,257,0.0,0.0,69,0.00,,,0.00,LWC V2.00 B2112,2013-09-17 22:56:00,
2013-09-17 19:01:00,66.4,55.9,30.20,WSW,257,0.0,0.0,69,0.00,,,0.00,LWC V2.00 B2112,2013-09-17 23:01:00,
2013-09-17 19:06:00,66.0,56.3,30.20,WSW,257,0.0,0.0,71,0.00,,,0.00,LWC V2.00 B2112,2013-09-17 23:06:00,
2013-09-17 19:11:00,65.6,55.9,30.20,WSW,257,0.0,0.0,71,0.00,,,0.00,LWC V2.00 B2112,2013-09-17 23:11:00,
2013-09-17 19:16:00,65.3,56.0,30.20,WSW,257,0.0,0.0,72,0.00,,,0.00,LWC V2.00 B2112,2013-09-17 23:16:00,
2013-09-17 19:21:00,64.8,56.3,30.20,WSW,257,0.0,0.0,74,0.00,,,0.00,LWC V2.00 B2112,2013-09-17 23:21:00,
2013-09-17 19:26:00,64.3,56.2,30.20,WSW,257,0.0,0.0,75,0.00,,,0.00,LWC V2.00 B2112,2013-09-17 23:26:00,
2013-09-17 19:31:00,64.0,55.9,30.20,WSW,257,0.0,0.0,75,0.00,,,0.00,LWC V2.00 B2112,2013-09-17 23:31:00,
2013-09-17 19:36:00,63.7,56.0,30.20,WSW,257,0.0,0.0,76,0.00,,,0.00,LWC V2.00 B2112,2013-09-17 23:36:00,
2013-09-17 19:41:00,63.4,56.4,30.20,WSW,257,0.0,0.0,78,0.00,,,0.00,LWC V2.00 B2112,2013-09-17 23:41:00,
2013-09-17 19:46:00,62.9,56.6,30.20,WSW,257,0.0,0.0,80,0.00,,,0.00,LWC V2.00 B2112,2013-09-17 23:46:00,
2013-09-17 19:51:00,62.6,56.3,30.20,WSW,257,0.0,0.0,80,0.00,,,0.00,LWC V2.00 B2112,2013-09-17 23:51:00,
2013-09-17 19:56:00,62.3,56.4,30.20,WSW,257,0.0,0.0,81,0.00,,,0.00,LWC V2.00 B2112,2013-09-17 23:56:00,
2013-09-17 20:01:00,62.0,56.1,30.20,WSW,257,0.0,0.0,81,0.00,,,0.00,LWC V2.00 B2112,2013-09-18 00:01:00,
2013-09-17 20:06:00,61.8,56.2,30.21,WSW,257,0.0,0.0,82,0.00,,,0.00,LWC V2.00 B2112,2013-09-18 00:06:00,
2013-09-17 20:11:00,61.5,55.9,30.21,WSW,257,0.0,0.0,82,0.00,,,0.00,LWC V2.00 B2112,2013-09-18 00:11:00,
2013-09-17 20:16:00,61.2,56.0,30.21,WSW,257,0.0,0.0,83,0.00,,,0.00,LWC V2.00 B2112,2013-09-18 00:16:00,
2013-09-17 20:21:00,60.9,55.7,30.21,WSW,257,0.0,0.0,83,0.00,,,0.00,LWC V2.00 B2112,2013-09-18 00:21:00,
2013-09-17 20:26:00,60.7,55.8,30.21,WSW,257,0.0,0.0,84,0.00,,,0.00,LWC V2.00 B2112,2013-09-18 00:26:00,
2013-09-17 20:31:00,60.5,55.6,30.21,WSW,257,0.0,0.0,84,0.00,,,0.00,LWC V2.00 B2112,2013-09-18 00:31:00,
2013-09-17 20:36:00,60.2,55.3,30.21,WSW,257,0.0,0.0,84,0.00,,,0.00,LWC V2.00 B2112,2013-09-18 00:36:00,
2013-09-17 20:41:00,60.1,55.2,30.21,WSW,257,0.0,0.0,84,0.00,,,0.00,LWC V2.00 B2112,2013-09-18 00:41:00,
2013-09-17 20:46:00,59.9,55.4,30.21,WSW,257,0.0,0.0,85,0.00,,,0.00,LWC V2.00 B2112,2013-09-18 00:46:00,
2013-09-17 20:51:00,59.6,55.1,30.22,WSW,257,0.0,0.0,85,0.00,,,0.00,LWC V2.00 B2112,2013-09-18 00:51:00,
2013-09-17 20:56:00,59.5,55.0,30.22,WSW,257,0.0,0.0,85,0.00,,,0.00,LWC V2.00 B2112,2013-09-18 00:56:00,
2013-09-17 21:01:00,59.3,55.1,30.22,WSW,257,0.0,0.0,86,0.00,,,0.00,LWC V2.00 B2112,2013-09-18 01:01:00,
2013-09-17 21:06:00,59.0,55.1,30.22,WSW,257,0.0,0.0,87,0.00,,,0.00,LWC V2.00 B2112,2013-09-18 01:06:00,
2013-09-17 21:11:00,58.9,55.0,30.22,WSW,257,0.0,0.0,87,0.00,,,0.00,LWC V2.00 B2112,2013-09-18 01:11:00,
2013-09-17 21:16:00,58.7,54.8,30.22,WSW,257,0.0,0.0,87,0.00,,,0.00,LWC V2.00 B2112,2013-09-18 01:16:00,
2013-09-17 21:21:00,58.6,55.1,30.23,WSW,257,0.0,0.0,88,0.00,,,0.00,LWC V2.00 B2112,2013-09-18 01:21:00,
2013-09-17 21:26:00,58.4,54.9,30.23,WSW,257,0.0,0.0,88,0.00,,,0.00,LWC V2.00 B2112,2013-09-18 01:26:00,
2013-09-17 21:31:00,58.3,54.8,30.23,WSW,257,0.0,0.0,88,0.00,,,0.00,LWC V2.00 B2112,2013-09-18 01:31:00,
2013-09-17 21:36:00,58.3,54.8,30.23,WSW,257,0.0,0.0,88,0.00,,,0.00,LWC V2.00 B2112,2013-09-18 01:36:00,
2013-09-17 21:41:00,58.1,54.6,30.23,WSW,257,0.0,0.0,88,0.00,,,0.00,LWC V2.00 B2112,2013-09-18 01:41:00,
2013-09-17 21:46:00,58.1,54.6,30.23,WSW,257,0.0,0.0,88,0.00,,,0.00,LWC V2.00 B2112,2013-09-18 01:46:00,
2013-09-17 21:51:00,58.0,54.2,30.23,WSW,257,0.0,0.0,87,0.00,,,0.00,LWC V2.00 B2112,2013-09-18 01:51:00,
2013-09-17 21:56:00,57.8,54.3,30.23,WSW,257,0.0,0.0,88,0.00,,,0.00,LWC V2.00 B2112,2013-09-18 01:56:00,
2013-09-17 22:01:00,57.8,54.3,30.23,WSW,257,0.0,0.0,88,0.00,,,0.00,LWC V2.00 B2112,2013-09-18 02:01:00,
2013-09-17 22:06:00,57.8,54.3,30.24,WSW,257,0.0,0.0,88,0.00,,,0.00,LWC V2.00 B2112,2013-09-18 02:06:00,
2013-09-17 22:11:00,57.6,54.4,30.24,WSW,257,0.0,0.0,89,0.00,,,0.00,LWC V2.00 B2112,2013-09-18 02:11:00,
2013-09-17 22:16:00,57.6,54.4,30.24,WSW,257,0.0,0.0,89,0.00,,,0.00,LWC V2.00 B2112,2013-09-18 02:16:00,
2013-09-17 22:21:00,57.5,54.0,30.24,WSW,257,0.0,0.0,88,0.00,,,0.00,LWC V2.00 B2112,2013-09-18 02:21:00,
2013-09-17 22:26:00,57.3,53.8,30.24,WSW,257,0.0,0.0,88,0.00,,,0.00,LWC V2.00 B2112,2013-09-18 02:26:00,
2013-09-17 22:31:00,57.2,53.7,30.24,WSW,257,0.0,0.0,88,0.00,,,0.00,LWC V2.00 B2112,2013-09-18 02:31:00,
2013-09-17 22:36:00,57.0,53.5,30.24,WSW,257,0.0,0.0,88,0.00,,,0.00,LWC V2.00 B2112,2013-09-18 02:36:00,
2013-09-17 22:41:00,56.9,53.4,30.24,WSW,257,0.0,0.0,88,0.00,,,0.00,LWC V2.00 B2112,2013-09-18 02:41:00,
2013-09-17 22:46:00,56.7,53.2,30.24,WSW,257,0.0,0.0,88,0.00,,,0.00,LWC V2.00 B2112,2013-09-18 02:46:00,
2013-09-17 22:51:00,56.7,53.5,30.25,WSW,257,0.0,0.0,89,0.00,,,0.00,LWC V2.00 B2112,2013-09-18 02:51:00,
2013-09-17 22:56:00,56.7,53.5,30.25,WSW,257,0.0,0.0,89,0.00,,,0.00,LWC V2.00 B2112,2013-09-18 02:56:00,
2013-09-17 23:01:00,56.6,53.4,30.25,WSW,257,0.0,0.0,89,0.00,,,0.00,LWC V2.00 B2112,2013-09-18 03:01:00,
2013-09-17 23:06:00,56.6,53.4,30.25,WSW,257,0.0,0.0,89,0.00,,,0.00,LWC V2.00 B2112,2013-09-18 03:06:00,
2013-09-17 23:11:00,56.5,53.6,30.25,WSW,257,0.0,0.0,90,0.00,,,0.00,LWC V2.00 B2112,2013-09-18 03:11:00,
2013-09-17 23:16:00,56.3,53.4,30.25,WSW,257,0.0,0.0,90,0.00,,,0.00,LWC V2.00 B2112,2013-09-18 03:16:00,
2013-09-17 23:21:00,56.2,53.3,30.26,WSW,257,0.0,0.0,90,0.00,,,0.00,LWC V2.00 B2112,2013-09-18 03:21:00,
2013-09-17 23:26:00,56.2,53.3,30.26,WSW,257,0.0,0.0,90,0.00,,,0.00,LWC V2.00 B2112,2013-09-18 03:26:00,
2013-09-17 23:31:00,56.0,52.8,30.26,WSW,257,0.0,0.0,89,0.00,,,0.00,LWC V2.00 B2112,2013-09-18 03:31:00,
2013-09-17 23:36:00,55.9,52.7,30.25,WSW,257,0.0,0.0,89,0.00,,,0.00,LWC V2.00 B2112,2013-09-18 03:36:00,
2013-09-17 23:41:00,55.9,52.7,30.25,WSW,257,0.0,0.0,89,0.00,,,0.00,LWC V2.00 B2112,2013-09-18 03:41:00,
2013-09-17 23:46:00,55.7,52.5,30.25,WSW,257,0.0,0.0,89,0.00,,,0.00,LWC V2.00 B2112,2013-09-18 03:46:00,
2013-09-17 23:51:00,55.7,52.5,30.26,WSW,257,0.0,0.0,89,0.00,,,0.00,LWC V2.00 B2112,2013-09-18 03:51:00,
2013-09-17 23:56:00,55.7,52.5,30.26,WSW,257,0.0,0.0,89,0.00,,,0.00,LWC V2.00 B2112,2013-09-18 03:56:00,